Weather in Yermakovo

Russia / Yaroslavl Oblast     58°00′32″N   39°00′52″E
temp.,
°C
wind,
m/s
gust,
m/s
humid.,
%
clouds,
%
prec.,
mm/h
press.,
hPa
HPBL,
m
23 april, fri
fri2300:00+6sse3109250 0.1 1014212
03:00+5sse3109447 0.1 1014223
06:00+6sse4129386 0.0 1013318
09:00+10sse5107649 0.1 1013551
12:00+13sse5126469 0.2 10121517
15:00+16s6135599 0.9 10112131
18:00+13sw61163100 0.9 10111076
21:00+6nne228995 1.4 1013198
24 april, sat
sat2400:00+6ene1293100 1.7 1012169
03:00+5ene3696100 1.8 1009211
06:00+7se41389100 0.3 1006622
09:00+9sse5983100 0.5 1005982
12:00+2wnw4696100 0.8 1006299
15:00+2w2598100 4.3 1007313
18:00+3nnw3897100 1.2 1006531
21:00+3wnw2698100 1.3 1006498
25 april, sun
sun2500:00+2wnw4798100 1.4 1005445
03:00+2wnw41192100 3.7 1005701
06:00+1wnw41086100 0.0 1004580
09:00+3w5979100 0.0 1004985
12:00+5w61074100 0.3 10051398
15:00+6w51063100 0.8 10051591
18:00+5w4968100 0.1 1006953
21:00+2wsw31080100 0.2 1007396
26 april, mon
mon2600:00+1wsw41186100 0.0 1008441
03:000wsw41089100 0.0 1008362
06:000sw31088100 0.0 1009358
09:00+4wsw576847 0.0 1009957
12:00+7wsw6853100 0.1 10092022
15:00+7wsw575366 0.2 10091796
18:00+7wsw365336 0.1 10091408
21:00+2sw22725 0.1 100913
27 april, tue
tue2700:00+1sw22785 0.0 100912
03:000wsw11835 0.0 100811
06:00+1wsw12795 0.0 100887
09:00+6wsw24565 0.0 1008803
12:00+8wsw4541100 0.1 10082301
15:00+9wsw454399 0.3 10081950
18:00+7w3554100 0.7 1008600
21:00+3wsw247385 0.8 101081